www.pogodaiklimat.ru

Погода и климат >> Архив погоды >> Пакистан >> Dera Ismail Khan


ПОГОДА в Dera Ismail Khan

  • Прогноз погоды в Dera Ismail Khan
  • Монитор погоды в Dera Ismail Khan
  • Климат города

АРХИВ ПОГОДЫ в Dera Ismail Khan

Время (UTC), дата Ветер
(напр.,м/с)
 
Видим.   Явления Облачность Т
(С)
Тd
(С)
f
(%)
Тe
(С)
Тes
(С)
Комфортность P
(гПа)
Po
(гПа)
Тmin
(С)
Tmax
(С)
R
(мм)
R24
(мм)
S
(см)
15 11.09 штиль 0 4000 м ясно +35.5 +27.4 63 +54 +54 опасность
перегрева
1000.9 975.8
18 11.09 штиль 0 4000 м ясно +32.5 +27.0 73 +51 +51 опасность
перегрева
1001.0 982.1
21 11.09 штиль 0 4000 м ясно +31.0 +25.9 74 +46 +46 опасность
перегрева
1000.5 1000.0
00 12.09 ЮВ 1 4000 м ясно +29.0 +25.5 81 +43 +43 опасность
перегрева
1000.8 994.5
03 12.09 ЮВ 1 10 км ясно +28.5 +25.7 85 +42 +47 опасность
перегрева
1002.3 983.1 +25.5
06 12.09 штиль 0 10 км ясно +35.0 +26.1 60 +51 +71 опасность
перегрева
1002.1 983.2
09 12.09 ЮВ 1 10 км ясно +39.5 +26.6 48 +55 +71 опасность
перегрева
998.2 998.0
12 12.09 ЮВ 1 10 км ясно +40.0 +26.4 47 +56 +58 опасность
перегрева
996.5 978.2 +40.5
15 12.09 штиль 0 4000 м ясно +34.5 +27.0 65 +52 +52 опасность
перегрева
996.8 972.2
18 12.09 штиль 0 4000 м ясно +32.0 +26.5 73 +49 +49 опасность
перегрева
998.6 979.6
21 12.09 штиль 0 4000 м ясно +30.5 +24.9 72 +44 +44 опасность
перегрева
998.0 1000.0
00 13.09 штиль 0 4000 м ясно +28.0 +25.2 85 +41 +41 опасность
перегрева
998.3 994.0
03 13.09 штиль 0 4000 м ясно +29.0 +26.2 85 +44 +49 опасность
перегрева
1000.5 981.4 +26.5
06 13.09 штиль 0 10 км ясно +34.0 +24.1 56 +46 +66 опасность
перегрева
1001.1 982.3
09 13.09 штиль 0 10 км ясно +39.5 +25.8 46 +54 +72 опасность
перегрева
999.2 1000.0
12 13.09 ЮЗ 1 10 км ясно +38.5 +26.2 50 +54 +57 опасность
перегрева
997.9 1006.2 +40.1
15 13.09 ЮЗ 1 4000 м ясно +34.0 +25.7 62 +49 +49 опасность
перегрева
997.9 1000.0
18 13.09 ЮВ 1 4000 м ясно +30.0 +26.5 82 +46 +46 опасность
перегрева
999.4 980.4
21 13.09 ЮВ 1 4000 м ясно +29.0 +25.5 81 +43 +43 опасность
перегрева
999.9 976.8
00 14.09 СВ 1 4000 м ясно +27.5 +23.9 81 +38 +38 очень
душно
1000.2 981.0
03 14.09 СВ 1 4000 м 8/5 300 м
[Sc As op]
+28.0 +25.2 85 +41 +42 опасность
перегрева
1003.7 984.5 +25.5
06 14.09 СВ 1 10 км 4/4 300 м
[Sc]
+31.0 +23.9 66 +43 +53 опасность
перегрева
1005.1 986.0
09 14.09 СВ 1 10 км 4/4 1000 м
[Sc]
+35.0 +24.5 55 +48 +58 опасность
перегрева
1003.8 1000.0
12 14.09 ЮВ 1 10 км 4/4 300 м
[Sc]
+36.0 +24.9 53 +49 +51 опасность
перегрева
1001.6 1004.8 +37.1
15 14.09 ЮВ 1 4000 м 4/4 300 м
[Sc]
+31.5 +24.4 66 +44 +44 опасность
перегрева
1003.2 1000.0
18 14.09 ЮВ 1 4000 м 4/4 300 м
[Sc]
+29.5 +25.3 78 +43 +43 опасность
перегрева
1004.2 985.1
21 14.09 ЮВ 1 4000 м 4/4 300 м
[Sc]
+28.5 +25.0 81 +41 +41 опасность
перегрева
1004.6 982.8
00 15.09 СВ 2 4000 м {гроза, дождь} 9/5 300 м
[Sc As op]
+23.0 +21.5 91 +31 +31 очень
душно
1005.8 986.3 0.0
03 15.09 СВ 1 10 км 9/5 300 м
[Sc As op]
+24.0 +21.0 83 +30 +31 очень
душно
1008.6 988.9 +21.5
06 15.09 СВ 1 10 км 8/4 300 м
[Sc As op]
+27.0 +20.2 66 +33 +38 очень
душно
1009.7 990.3
09 15.09 СВ 1 10 км 3/3 300 м
[Sc]
+31.0 +18.8 48 +36 +47 очень
душно
1008.2 1000.0
12 15.09 штиль 0 10 км 6/4 300 м
[Sc As op]
+31.5 +18.5 46 +36 +37 очень
душно
1006.7 1003.4 +33.1
15 15.09 СВ 1 4000 м 9/5 300 м
[Sc As op]
+29.0 +18.2 52 +34 +34 очень
душно
1007.3 1000.0
18 15.09 штиль 0 4000 м 5/0
[As op]
+26.5 +18.8 63 +32 +32 очень
душно
1009.0 989.5
21 15.09 штиль 0 4000 м 5/0
[As op]
+25.0 +18.8 68 +30 +30 душно 1007.9 986.4
00 16.09 штиль 0 4000 м ясно +24.0 +17.6 67 +28 +28 душно 1006.8 987.2
03 16.09 штиль 0 4000 м ясно +24.5 +18.2 68 +29 +33 душно 1007.7 988.1 +21.5
06 16.09 штиль 0 4000 м ясно +32.0 +19.1 46 +37 +57 опасность
солнечного
удара
1008.0 988.8
09 16.09 ЮВ 1 10 км ясно +34.5 +17.6 37 +38 +54 опасность
солнечного
удара
1005.9 1000.0
12 16.09 ЮВ 1 10 км ясно +35.0 +18.3 37 +39 +41 очень
душно
1003.6 1004.1 +36.1
15 16.09 штиль 0 4000 м ясно +31.0 +17.9 46 +35 +35 очень
душно
1004.2 1000.0
18 16.09 СВ 1 4000 м ясно +29.0 +18.2 52 +34 +34 очень
душно
1005.7 986.5
21 16.09 штиль 0 4000 м ясно +27.0 +18.5 60 +32 +32 очень
душно
1004.6 983.3
00 17.09 штиль 0 4000 м ясно +25.0 +18.8 68 +30 +30 душно 1004.5 985.0
03 17.09 штиль 0 4000 м ясно +25.5 +19.3 69 +31 +35 очень
душно
1005.6 986.1 +22.5
06 17.09 ЮВ 1 4000 м ясно +34.0 +19.9 44 +40 +58 опасность
солнечного
удара
1006.4 987.5
09 17.09 штиль 0 10 км ясно +36.0 +19.7 39 +42 +59 опасность
перегрева
1004.4 1000.0
12 17.09 ЮВ 1 10 км ясно +36.5 +21.2 41 +44 +46 опасность
перегрева
1002.4 983.6 +37.5
15 17.09 штиль 0 4000 м ясно +33.0 +20.4 48 +40 +40 очень
душно
1003.2 979.3
18 17.09 штиль 0 4000 м ясно +30.0 +20.3 56 +37 +37 очень
душно
1004.4 985.3
21 17.09 штиль 0 4000 м ясно +27.5 +19.9 63 +33 +33 очень
душно
1003.7 1000.0
00 18.09 штиль 0 4000 м ясно +26.0 +19.9 69 +32 +32 очень
душно
1003.3 983.9
03 18.09 штиль 0 4000 м ясно +26.5 +20.5 70 +33 +37 очень
душно
1004.7 985.3 +23.5
06 18.09 штиль 0 10 км ясно +34.5 +23.1 52 +45 +64 опасность
перегрева
1005.6 986.7
09 18.09 ЮВ 1 10 км ясно +37.0 +22.8 44 +46 +63 опасность
перегрева
1003.5 1000.0
12 18.09 штиль 0 10 км ясно +38.0 +24.0 45 +49 +52 опасность
перегрева
1001.3 982.9 +39.5

 

Местоположение метеостанции Dera Ismail Khan (Пакистан): широта 31.82 долгота 70.92 высота над уровнем моря 173 м.

В архиве по умолчанию представлена погода в Dera Ismail Khan за последнюю неделю. Архивные данные за месяц целиком и за предыдущие месяцы, начиная с января 2011 года, Вы можете получить, выбрав интересующий диапазон дат из раскрывающегося списка и нажав кнопку "Ввод!".


*Определитесь, кто Вы:
робот инопланетянин человек

Внимание! Время в таблицах - всемирное. Для получения местного времени необходимо прибавить поправку, которая в Dera Ismail Khan равна 5 ч.

Смотрите также архив погоды в соседних городах и на ближайших метеорологических станциях:

Погода в Mianwali (Пакистан) (99 км)
Погода в Zhob (Пакистан) (147 км)
Погода в Sargodha (Пакистан) (167 км)
Погода в Raifiqui Airbase (Пакистан) (168 км)
Погода в Multan (Пакистан) (187 км)
Погода в Kohat (Пакистан) (200 км)
Погода в Faisal Abad (Пакистан) (211 км)
Погода в Parachinar (Пакистан) (241 км)
Погода в Barkhan (Пакистан) (244 км)
Погода в Peshawar (Пакистан) (252 км)

Пояснения к столбцам:

Ветер - указаны скорость ветра в м/с - средняя за 10 мин, порывы в срок и между сроками (в фигурных скобках) и направление, откуда дует ветер: С - северный, СВ - северо-восточный, В - восточный, ЮВ - юго-восточный, Ю - южный, ЮЗ - юго-западный, З - западный, СЗ - северо-западный.
Видимость - горизонтальная дальность видимости в метрах или километрах. При видимости от 1 до 10 км при отсутствии осадков обычно наблюдается дымка, при ухудшении видимости до 1 км и менее - туман. В сухую погоду видимость может ухудшаться дымом, пылью или мглою.
Явления - указаны атмосферные явления, наблюдавшиеся в срок или в последний час перед сроком; фигурными скобками обозначены явления, наблюдавшиеся между сроками (за 1-3 часа до срока); квадратными скобками обозначены град или гололедные отложения с указанием их диаметра в мм.
Облачность - указаны через наклонную черту общая и нижняя облачность в баллах и высота нижней границы облаков в метрах; квадратными скобками обозначены формы облаков: Ci - перистые, Cs - перисто-слоистые, Cc - перисто-кучевые, Ac - высококучевые, As - высокослоистые, Sc - слоисто-кучевые, Ns - слоисто-дождевые, Cu - кучевые, Cb - кучево-дождевые. Подробнее классификацию облаков см. в Атласе облаков (PDF).
T - Температура воздуха - температура, измеренная на высоте 2 м над землей.
Td - Температура точки росы - температура, при понижении до которой содержащийся в воздухе водяной пар достигнет насыщения.
f - Относительная влажность воздуха - влажноcть воздуха, измеренная на высоте 2 м над землей.
Te - Эффективная температура - температура, которую ощущает одетый по сезону человек в тени. Характеристика душности погоды. При расчете учитывается влияние влажности воздуха и скорости ветра на теплоощущения человека.
Tes - Эффективная температура на солнце - температура, которую ощущает человек, с поправкой на солнечный нагрев. Характеристика знойности погоды. Зависит от высоты солнца над горизонтом, облачности и скорости ветра. Ночью, в пасмурную погоду, а также при ветре 12 м/с и более поправка равна нулю.
P - Атмосферное давление - приведенное к уровню моря атмосферное давление.
Po - Атмосферное давление - измеренное на уровне метеостанции атмосферное давление.
Tmin - Минимальная температура - минимум температуры воздуха на высоте 2 м над землей.
Tmax - Максимальная температура - максимум температуры воздуха на высоте 2 м над землей.
R - Количество осадков - Количество выпавших осадков за период времени, мм. При наведении курсора мыши на число - период времени, за который выпало указанное количество осадков.
R24 - Количество осадков - Количество выпавших осадков за 24 часа, мм.
S - Снежный покров - Высота снежного покрова, см. При наведении курсора мыши на число - состояние снежного покрова и степень покрытия местности в баллах.